TimeEDT,TemperatureF,Dew PointF,Humidity,Sea Level PressureIn,VisibilityMPH,Wind Direction,Wind SpeedMPH,Gust SpeedMPH,PrecipitationIn,Events,Conditions,WindDirDegrees,DateUTC
12:02 AM,62.6,60.8,94,30.03,5.0,SSW,3.5,-,N/A,,Mostly Cloudy,200,2013-05-17 04:02:00
12:53 AM,64.0,61.0,90,30.02,8.0,SSW,4.6,-,N/A,,Overcast,210,2013-05-17 04:53:00
1:09 AM,62.6,60.8,94,30.03,8.0,South,3.5,-,N/A,,Overcast,190,2013-05-17 05:09:00
1:33 AM,62.6,60.8,94,30.03,8.0,SSW,4.6,-,N/A,,Mostly Cloudy,210,2013-05-17 05:33:00
1:53 AM,63.0,60.1,90,30.02,7.0,SSW,4.6,-,N/A,,Overcast,210,2013-05-17 05:53:00
2:53 AM,63.0,60.1,90,30.02,9.0,SW,4.6,-,N/A,,Overcast,220,2013-05-17 06:53:00
3:41 AM,62.6,60.8,94,30.06,8.0,Calm,Calm,-,N/A,,Overcast,0,2013-05-17 07:41:00
3:53 AM,63.0,60.1,90,30.04,9.0,Calm,Calm,-,N/A,,Overcast,0,2013-05-17 07:53:00
4:04 AM,62.6,60.8,94,30.06,9.0,Calm,Calm,-,N/A,,Overcast,0,2013-05-17 08:04:00
4:15 AM,62.6,60.8,94,30.06,8.0,Calm,Calm,-,N/A,,Overcast,0,2013-05-17 08:15:00
4:33 AM,62.6,60.8,94,30.07,6.0,Calm,Calm,-,N/A,,Overcast,0,2013-05-17 08:33:00
4:53 AM,61.0,59.0,93,30.05,5.0,Calm,Calm,-,N/A,,Mostly Cloudy,0,2013-05-17 08:53:00
5:53 AM,60.1,59.0,96,30.07,3.0,Calm,Calm,-,N/A,,Partly Cloudy,0,2013-05-17 09:53:00
6:07 AM,60.8,59.0,94,30.10,4.0,Calm,Calm,-,N/A,,Mostly Cloudy,0,2013-05-17 10:07:00
6:31 AM,62.6,60.8,94,30.10,5.0,Calm,Calm,-,N/A,,Mostly Cloudy,0,2013-05-17 10:31:00
6:53 AM,61.0,59.0,93,30.09,4.0,Calm,Calm,-,N/A,,Overcast,0,2013-05-17 10:53:00
7:18 AM,60.8,60.8,100,30.12,0.5,Calm,Calm,-,N/A,Fog,Fog,0,2013-05-17 11:18:00
7:30 AM,60.8,60.8,100,30.12,4.0,Calm,Calm,-,N/A,Fog,Fog,0,2013-05-17 11:30:00
8:14 AM,64.4,59.0,83,30.13,8.0,Calm,Calm,-,N/A,,Scattered Clouds,0,2013-05-17 12:14:00
8:53 AM,64.9,59.0,81,30.12,10.0,Calm,Calm,-,N/A,,Partly Cloudy,0,2013-05-17 12:53:00
9:09 AM,66.2,59.0,78,30.14,10.0,SSE,6.9,-,N/A,,Mostly Cloudy,160,2013-05-17 13:09:00
9:30 AM,66.2,57.2,73,30.14,10.0,SSE,4.6,-,N/A,,Scattered Clouds,160,2013-05-17 13:30:00
9:53 AM,69.1,59.0,70,30.12,10.0,SW,5.8,-,N/A,,Partly Cloudy,220,2013-05-17 13:53:00
10:53 AM,72.0,59.0,64,30.12,10.0,SSW,3.5,-,N/A,,Clear,210,2013-05-17 14:53:00
11:53 AM,73.9,57.9,57,30.10,10.0,Calm,Calm,-,N/A,,Clear,0,2013-05-17 15:53:00
12:53 PM,77.0,57.9,52,30.09,10.0,WNW,4.6,-,N/A,,Scattered Clouds,290,2013-05-17 16:53:00
1:53 PM,80.1,55.0,42,30.08,10.0,Variable,5.8,-,N/A,,Scattered Clouds,0,2013-05-17 17:53:00
2:53 PM,81.0,48.0,31,30.06,10.0,Variable,5.8,-,N/A,,Scattered Clouds,0,2013-05-17 18:53:00
3:53 PM,82.9,45.0,26,30.05,10.0,Variable,6.9,-,N/A,,Scattered Clouds,0,2013-05-17 19:53:00
4:53 PM,82.9,48.0,29,30.04,10.0,Variable,6.9,-,N/A,,Partly Cloudy,0,2013-05-17 20:53:00
5:53 PM,81.0,50.0,34,30.04,10.0,Variable,5.8,-,N/A,,Clear,0,2013-05-17 21:53:00
6:53 PM,77.0,52.0,42,30.05,10.0,NNE,6.9,-,N/A,,Clear,20,2013-05-17 22:53:00
7:53 PM,73.0,54.0,51,30.06,10.0,North,4.6,-,N/A,,Clear,360,2013-05-17 23:53:00
8:53 PM,72.0,55.0,55,30.08,10.0,Calm,Calm,-,N/A,,Clear,0,2013-05-18 00:53:00
9:53 PM,70.0,54.0,57,30.09,10.0,Calm,Calm,-,N/A,,Clear,0,2013-05-18 01:53:00
10:53 PM,66.0,55.0,68,30.10,10.0,Calm,Calm,-,N/A,,Clear,0,2013-05-18 02:53:00
11:53 PM,64.0,55.9,75,30.10,10.0,Calm,Calm,-,N/A,,Clear,0,2013-05-18 03:53:00